| time (UTC) | temp F | wind direction | speed MPH | gust MPH | rain 1hr in | rain 24hr in | rain mn in | humidity % | barometer mb |
| 20260506181550 | 72 | 254 | 1.0 | 8.0 | 0.00 | 0.00 | 0.00 | 54 | 1020.5 |
| 20260506180140 | 71 | 12 | 2.0 | 9.0 | 0.00 | 0.00 | 0.00 | 56 | 1020.5 |
| 20260506174545 | 69 | 51 | 2.0 | 9.0 | 0.00 | 0.00 | 0.00 | 59 | 1020.5 |
| 20260506173045 | 68 | 262 | 2.0 | 6.0 | 0.00 | 0.00 | 0.00 | 59 | 1020.6 |
| 20260506171539 | 67 | 355 | 3.0 | 9.0 | 0.00 | 0.00 | 0.00 | 62 | 1020.7 |
| 20260506170135 | 65 | 340 | 3.0 | 6.0 | 0.00 | 0.00 | 0.00 | 67 | 1020.7 |
| 20260506164601 | 64 | 291 | 2.0 | 7.0 | 0.00 | 0.00 | 0.00 | 68 | 1020.8 |
| 20260506163051 | 63 | 12 | 1.0 | 6.0 | 0.00 | 0.00 | 0.00 | 71 | 1020.9 |
| 20260506161536 | 61 | 355 | 3.0 | 8.0 | 0.00 | 0.00 | 0.00 | 77 | 1021.0 |
| 20260506160135 | 59 | 340 | 2.0 | 6.0 | 0.00 | 0.00 | 0.00 | 83 | 1021.1 |
| 20260506154553 | 57 | 343 | 3.0 | 5.0 | 0.00 | 0.00 | 0.00 | 85 | 1021.1 |
| 20260506153045 | 55 | 26 | 0.0 | 4.0 | 0.00 | 0.00 | 0.00 | 87 | 1021.2 |
| 20260506151545 | 54 | 30 | 0.0 | 1.0 | 0.00 | 0.00 | 0.00 | 87 | 1021.3 |
| 20260506150145 | 53 | 198 | 0.0 | 2.0 | 0.00 | 0.00 | 0.00 | 87 | 1021.3 |
| 20260506144545 | 51 | 336 | 0.0 | 2.0 | 0.00 | 0.00 | 0.00 | 87 | 1021.5 |
| 20260506143044 | 50 | 302 | 0.0 | 2.0 | 0.00 | 0.00 | 0.00 | 86 | 1021.5 |
| 20260506141544 | 49 | 315 | 0.0 | 0.0 | 0.00 | 0.00 | 0.00 | 86 | 1021.3 |
| 20260506140141 | 49 | 315 | 0.0 | 1.0 | 0.00 | 0.00 | 0.00 | 86 | 1021.0 |
| 20260506134540 | 49 | 344 | 0.0 | 0.0 | 0.00 | 0.00 | 0.00 | 86 | 1020.8 |
| 20260506133050 | 49 | 344 | 0.0 | 2.0 | 0.00 | 0.00 | 0.00 | 86 | 1020.7 |
| 20260506131538 | 49 | 36 | 0.0 | 0.0 | 0.00 | 0.00 | 0.00 | 85 | 1020.5 |
| 20260506130136 | 49 | 153 | 0.0 | 0.0 | 0.00 | 0.00 | 0.00 | 85 | 1020.5 |
| 20260506124537 | 49 | 153 | 0.0 | 0.0 | 0.00 | 0.00 | 0.00 | 85 | 1020.4 |
| 20260506123036 | 49 | 153 | 0.0 | 0.0 | 0.00 | 0.00 | 0.00 | 85 | 1020.3 |
| 20260506121533 | 49 | 153 | 0.0 | 0.0 | 0.00 | 0.00 | 0.00 | 84 | 1020.1 |
| 20260506120133 | 50 | 153 | 0.0 | 0.0 | 0.00 | 0.00 | 0.00 | 84 | 1020.1 |
| 20260506114552 | 50 | 153 | 0.0 | 0.0 | 0.00 | 0.00 | 0.00 | 84 | 1020.0 |
| 20260506113050 | 51 | 153 | 0.0 | 0.0 | 0.00 | 0.00 | 0.00 | 84 | 1019.9 |
| 20260506111549 | 51 | 153 | 0.0 | 0.0 | 0.00 | 0.00 | 0.00 | 84 | 1019.7 |
| 20260506110147 | 51 | 153 | 0.0 | 0.0 | 0.00 | 0.00 | 0.00 | 84 | 1019.8 |
| 20260506104558 | 51 | 153 | 0.0 | 0.0 | 0.00 | 0.00 | 0.00 | 84 | 1019.8 |
| 20260506103048 | 51 | 153 | 0.0 | 0.0 | 0.00 | 0.00 | 0.00 | 84 | 1019.7 |
| 20260506101545 | 52 | 153 | 0.0 | 0.0 | 0.00 | 0.00 | 0.00 | 83 | 1019.7 |
| 20260506100142 | 52 | 153 | 0.0 | 3.0 | 0.00 | 0.00 | 0.00 | 83 | 1019.6 |
| 20260506094545 | 53 | 159 | 0.0 | 0.0 | 0.00 | 0.00 | 0.00 | 83 | 1019.7 |
| 20260506093042 | 53 | 159 | 0.0 | 0.0 | 0.00 | 0.00 | 0.00 | 82 | 1019.7 |
| 20260506091540 | 54 | 159 | 0.0 | 0.0 | 0.00 | 0.00 | 0.00 | 82 | 1019.8 |
| 20260506090138 | 54 | 159 | 0.0 | 0.0 | 0.00 | 0.00 | 0.00 | 82 | 1019.9 |
| 20260506084610 | 55 | 159 | 0.0 | 0.0 | 0.00 | 0.00 | 0.00 | 82 | 1019.7 |
| 20260506083038 | 55 | 159 | 0.0 | 0.0 | 0.00 | 0.00 | 0.00 | 82 | 1019.6 |
| 20260506081547 | 55 | 159 | 0.0 | 0.0 | 0.00 | 0.00 | 0.00 | 82 | 1019.7 |
| 20260506080133 | 55 | 155 | 0.0 | 0.0 | 0.00 | 0.00 | 0.00 | 82 | 1019.7 |
| 20260506073053 | 55 | 155 | 0.0 | 2.0 | 0.00 | 0.00 | 0.00 | 82 | 1019.4 |
| 20260506071551 | 55 | 131 | 0.0 | 3.0 | 0.00 | 0.00 | 0.00 | 81 | 1019.3 |
| 20260506070151 | 55 | 159 | 0.0 | 0.0 | 0.00 | 0.00 | 0.00 | 81 | 1019.1 |
| 20260506061547 | 57 | 130 | 0.0 | 0.0 | 0.00 | 0.00 | 0.00 | 78 | 1018.8 |
| 20260506060148 | 57 | 130 | 0.0 | 0.0 | 0.00 | 0.00 | 0.00 | 78 | 1018.7 |
| 20260506050141 | 58 | 131 | 0.0 | 0.0 | 0.00 | 0.00 | 0.00 | 77 | 1018.3 |
| 20260506044542 | 58 | 131 | 0.0 | 3.0 | 0.00 | 0.00 | 0.00 | 76 | 1018.3 |
| 20260506043044 | 58 | 130 | 1.0 | 3.0 | 0.00 | 0.00 | 0.00 | 76 | 1018.1 |
| 20260506041538 | 58 | 144 | 1.0 | 6.0 | 0.00 | 0.00 | 0.00 | 76 | 1017.9 |
| 20260506040140 | 58 | 145 | 1.0 | 6.0 | 0.00 | 0.00 | 0.00 | 77 | 1017.8 |
| 20260506034536 | 58 | 138 | 2.0 | 4.0 | 0.00 | 0.00 | 0.00 | 77 | 1017.6 |
| 20260506033034 | 59 | 118 | 2.0 | 4.0 | 0.00 | 0.00 | 0.00 | 76 | 1017.2 |
| 20260506031540 | 59 | 160 | 1.0 | 3.0 | 0.00 | 0.00 | 0.00 | 76 | 1017.1 |
| 20260506030132 | 59 | 167 | 2.0 | 4.0 | 0.00 | 0.00 | 0.00 | 76 | 1016.9 |
| 20260506024552 | 59 | 152 | 2.0 | 6.0 | 0.00 | 0.00 | 0.00 | 76 | 1016.7 |
| 20260506023104 | 60 | 217 | 2.0 | 5.0 | 0.00 | 0.00 | 0.00 | 75 | 1016.7 |
| 20260506021610 | 60 | 232 | 3.0 | 6.0 | 0.00 | 0.00 | 0.00 | 75 | 1016.6 |
| 20260506020150 | 60 | 186 | 1.0 | 5.0 | 0.00 | 0.00 | 0.00 | 74 | 1016.6 |
| 20260506014547 | 61 | 219 | 1.0 | 5.0 | 0.00 | 0.00 | 0.00 | 74 | 1016.6 |
| 20260506013057 | 61 | 169 | 1.0 | 4.0 | 0.00 | 0.00 | 0.00 | 74 | 1016.6 |
| 20260506011601 | 61 | 196 | 3.0 | 8.0 | 0.00 | 0.00 | 0.00 | 73 | 1016.5 |
| 20260506010145 | 61 | 303 | 1.0 | 3.0 | 0.00 | 0.00 | 0.00 | 72 | 1016.5 |
| 20260506004543 | 60 | 178 | 0.0 | 5.0 | 0.00 | 0.00 | 0.00 | 73 | 1016.5 |
| 20260506003043 | 60 | 201 | 2.0 | 8.0 | 0.00 | 0.00 | 0.00 | 74 | 1016.5 |
| 20260506001546 | 61 | 240 | 3.0 | 8.0 | 0.00 | 0.00 | 0.00 | 73 | 1016.4 |
| 20260506000141 | 62 | 244 | 5.0 | 9.0 | 0.00 | 0.00 | 0.00 | 68 | 1016.3 |
| 20260505234539 | 64 | 103 | 0.0 | 4.0 | 0.00 | 0.00 | 0.00 | 64 | 1016.3 |
| 20260505233039 | 64 | 355 | 1.0 | 5.0 | 0.00 | 0.00 | 0.00 | 64 | 1016.3 |
| 20260505231549 | 63 | 331 | 1.0 | 6.0 | 0.00 | 0.00 | 0.00 | 64 | 1016.3 |
| 20260505230137 | 63 | 5 | 3.0 | 8.0 | 0.00 | 0.00 | 0.00 | 64 | 1016.4 |
| 20260505224536 | 64 | 360 | 3.0 | 7.0 | 0.00 | 0.00 | 0.00 | 64 | 1016.4 |
| 20260505223035 | 63 | 355 | 2.0 | 8.0 | 0.00 | 0.00 | 0.00 | 64 | 1016.5 |
| 20260505221536 | 63 | 340 | 4.0 | 10.0 | 0.00 | 0.00 | 0.00 | 63 | 1016.7 |
| 20260505220134 | 64 | 5 | 6.0 | 10.0 | 0.00 | 0.00 | 0.00 | 62 | 1016.7 |
| 20260505214559 | 65 | 341 | 0.0 | 9.0 | 0.00 | 0.00 | 0.00 | 62 | 1016.6 |
| 20260505213052 | 64 | 5 | 3.0 | 6.0 | 0.00 | 0.00 | 0.00 | 63 | 1016.7 |
| 20260505211550 | 63 | 51 | 3.0 | 10.0 | 0.00 | 0.00 | 0.00 | 64 | 1016.9 |
| 20260505210150 | 63 | 342 | 5.0 | 10.0 | 0.00 | 0.00 | 0.00 | 64 | 1016.9 |
| 20260505204551 | 63 | 307 | 1.0 | 9.0 | 0.00 | 0.00 | 0.00 | 65 | 1016.9 |
| 20260505203106 | 62 | 355 | 4.0 | 10.0 | 0.00 | 0.00 | 0.00 | 65 | 1017.0 |
| 20260505201554 | 62 | 355 | 5.0 | 10.0 | 0.00 | 0.00 | 0.00 | 65 | 1017.0 |
| 20260505200145 | 62 | 323 | 4.0 | 13.0 | 0.00 | 0.00 | 0.00 | 68 | 1017.0 |
| 20260505194551 | 61 | 348 | 3.0 | 9.0 | 0.00 | 0.00 | 0.00 | 68 | 1017.2 |
| 20260505193051 | 60 | 311 | 6.0 | 11.0 | 0.00 | 0.00 | 0.00 | 68 | 1017.3 |
| 20260505191552 | 60 | 310 | 5.0 | 11.0 | 0.00 | 0.00 | 0.00 | 68 | 1017.2 |
| 20260505190141 | 60 | 360 | 4.0 | 9.0 | 0.00 | 0.00 | 0.00 | 68 | 1017.2 |
| 20260505184547 | 59 | 344 | 3.0 | 6.0 | 0.00 | 0.00 | 0.00 | 68 | 1017.2 |
| 20260505183044 | 59 | 351 | 1.0 | 6.0 | 0.00 | 0.00 | 0.00 | 69 | 1017.1 |